[[{"header":{"parameterUnit":"m.s-1","parameterCategory":1,"la1":30.2991,"la2":30.254,"lo1":-89.0895,"lo2":-89.0444,"dx":0.0017,"dy":0.0017,"nx":28,"ny":28,"refTime":"2022-12-24T09:00:00:Z","depth":0,"parameterNumber":2,"parameterNumberName":"U-component_of_WINDS"},"data":[0,0,0,0,0,0,0,0,0,0,0,0,0,0,0,0,0,0,0,0,0,0,0,0,0,0,0,0,0,0,0,0,0,0,0,0,0,0,0,0,0,0,0,0,0,0,0,0,0,0,0,0,0,0,0,0,0,0,3.9672,3.9673,0,3.9716,3.9716,3.9717,3.9677,3.9675,3.9673,3.9672,3.9714,3.9717,3.9719,0,0,0,0,0,0,0,0,0,0,0,0,0,3.9552,3.9555,3.9672,3.9673,3.9673,3.9716,3.9716,3.9717,3.9677,3.9675,3.9673,3.9671,3.9713,3.9716,3.972,0,0,0,0,0,0,0,0,0,0,0,0,0,3.9601,3.9555,3.9672,3.9658,3.9658,3.9716,3.9716,3.9717,3.9677,3.9675,3.9672,3.967,3.9712,3.9716,3.972,3.9793,0,0,3.9732,3.9734,0,0,0,0,0,0,0,0,3.9598,3.9605,3.966,3.9659,3.9659,3.9688,3.969,3.9743,3.9678,3.967,3.9672,3.9669,3.9707,3.9712,3.9725,3.9795,3.9797,3.9732,3.9735,3.9736,3.9738,0,0,0,0,0,0,0,3.9595,3.9603,3.9689,3.9661,3.966,3.965,3.9654,3.9699,3.9702,3.967,3.9667,3.9673,3.9707,3.9721,3.9726,3.9797,3.9732,3.9736,3.9738,3.974,3.993,3.9933,0,0,0,0,0,0,3.9593,3.9601,3.9688,3.9691,3.9622,3.9654,3.9658,3.9681,3.9701,3.9702,3.9675,3.9671,3.9716,3.9721,3.9727,3.9814,3.9736,3.974,3.9742,3.9928,3.9931,3.9934,0,0,0,0,0,0,3.9591,3.9601,3.9686,3.9645,3.9655,3.9658,3.9684,3.9683,3.9698,3.9705,3.9705,3.969,3.9714,3.9721,3.9777,3.9815,3.9742,3.9746,3.9924,3.9929,3.9932,3.9988,0,0,0,0,0,0,3.9588,3.9601,3.9629,3.9646,3.9657,3.9736,3.9687,3.9686,3.9705,3.97,3.9719,3.9719,3.9713,3.9772,3.9781,3.9819,3.9749,3.9921,3.9926,3.9931,3.9983,3.9994,4.0003,0,0,0,0,0,3.9583,3.9642,3.963,3.9641,3.9693,3.9738,3.9745,3.9737,3.9709,3.9736,3.9741,3.9719,3.981,3.9778,3.9788,3.9828,3.9919,3.9925,3.9931,3.9979,3.9992,4.0003,0,0,0,0,0,0,3.9628,3.9644,3.9631,3.9697,3.9717,3.9732,3.9766,3.9751,3.9778,3.9772,3.976,3.9765,3.9824,3.9831,3.9795,3.99,3.9859,3.9868,3.9892,3.9905,3.9915,3.9911,3.9752,0,0,0,0,0,3.9646,3.9682,3.9694,3.9751,3.9762,3.9763,3.9782,3.9775,3.9794,3.9802,3.981,3.983,3.9863,3.9884,3.9915,3.9985,3.9988,4.0017,4.0027,4.0035,4.0042,4.008,4.0093,3.9954,3.9954,3.9953,0,0,3.9682,3.9695,3.9719,3.9761,3.9775,3.9813,3.977,3.9811,3.9839,3.9808,3.9861,3.9869,3.9889,3.9953,3.9981,3.9961,4.0082,4.0043,4.0049,4.0052,4.0087,4.0101,4.0112,3.9958,3.9957,3.9956,0,0,3.9767,3.9782,3.9831,3.9847,3.987,3.987,3.9882,3.99,3.9904,3.9957,3.9935,3.9968,4.0025,4.004,4.0056,4.015,4.013,4.016,4.0211,4.0248,4.0259,4.0269,4.0302,4.0314,4.0167,4.0168,4.0168,0,3.9809,3.9866,3.9858,3.9902,3.9921,3.9896,3.9946,3.9961,3.9993,4.0006,3.9984,4.0055,4.0067,4.0134,4.0157,4.0171,4.0184,4.0157,4.0259,4.0268,4.0277,4.0308,4.0321,4.0171,4.0171,4.017,4.017,0,3.9916,3.9956,3.9993,4.0025,4.0049,4.0095,4.0094,4.0119,4.011,4.0113,4.0168,4.0182,4.0215,4.0231,4.0222,4.0297,4.0284,4.026,4.0219,4.0294,4.0323,4.0335,4.0176,4.0175,4.0174,4.0173,0,0,4.0029,4.0058,4.0071,4.0086,4.011,4.0141,4.0186,4.022,4.0241,4.0264,4.0302,4.0352,4.0331,4.0348,4.0341,4.0374,4.0447,4.0346,4.0347,4.0364,4.053,4.0547,4.0561,4.0435,4.0438,4.0439,4.0529,0,4.0115,4.0195,4.019,4.0265,4.0301,4.028,4.0319,4.0339,4.0343,4.0374,4.0379,4.0414,4.0384,4.0395,4.0426,4.0432,4.048,4.0425,4.0469,4.0471,4.0463,4.0577,4.0594,4.0677,4.054,4.0542,4.0543,0,4.0225,4.0253,4.0332,4.0352,4.0367,4.0403,4.0434,4.0465,4.0486,4.0487,4.0508,4.0496,4.0542,4.0502,4.0564,4.0527,4.0545,4.0551,4.0554,4.0556,4.0511,4.0581,4.0704,4.0716,4.0561,4.056,4.0559,0,4.0299,4.0356,4.0411,4.0425,4.0449,4.0475,4.0487,4.0506,4.0527,4.0554,4.0567,4.0599,4.0617,4.0642,4.0638,4.0609,4.0702,4.0661,4.0704,4.0704,4.0723,4.0721,4.0849,4.0737,4.0737,4.0736,4.0736,0,4.0394,4.0443,4.0445,4.0478,4.0533,4.0527,4.0581,4.0589,4.0607,4.0642,4.0625,4.0658,4.0652,4.0685,4.0683,4.0735,4.0743,4.0745,4.0743,4.0746,4.0745,4.0756,4.075,4.074,4.0739,4.0738,4.0738,0,4.0485,4.0488,4.0546,4.0566,4.0572,4.0611,4.0627,4.0659,4.0663,4.0707,4.0717,4.0723,4.0761,4.0761,4.0803,4.0802,4.0866,4.0858,4.0859,4.0857,4.0899,4.0895,4.1037,4.1055,4.0932,4.0933,4.0934,0,4.0545,4.0582,4.0606,4.0629,4.0642,4.0679,4.0701,4.0697,4.072,4.0749,4.0777,4.0814,4.0842,4.0904,4.0911,4.0944,4.0937,4.0985,4.0941,4.0943,4.0937,4.0934,4.0937,4.0992,4.0994,4.0995,4.0996,0,4.0651,4.0652,4.0684,4.0718,4.0745,4.0771,4.0795,4.0814,4.0813,4.084,4.0879,4.0902,4.0947,4.0983,4.1015,4.1026,4.1011,4.101,4.1021,4.1023,4.1021,4.1022,4.0881,4.1006,4.1005,4.1004,4.1004,4.1003,4.0728,4.076,4.0783,4.082,4.0838,4.0861,4.0892,4.0901,4.0934,4.097,4.0966,4.101,4.1031,4.1073,4.1087,4.1121,4.1104,4.1121,4.1125,4.1128,4.1133,4.1017,4.1127,4.1126,4.1126,4.1126,4.1126,0,4.0833,4.0847,4.0881,4.0916,4.0945,4.093,4.0956,4.0981,4.102,4.1042,4.1072,4.1117,4.1152,4.1164,4.1198,4.1223,4.1217,4.1232,4.1229,4.1232,4.1146,4.1133,4.1237,4.1237,4.1237,4.1237,4.1236,4.1236,4.0891,4.0945,4.0948,4.1011,4.1024,4.1068,4.1084,4.1105,4.1123,4.1174,4.1204,4.1212,4.123,4.1266,4.1298,4.13,4.1313,4.1331,4.1331,4.125,4.1238,4.1228,4.1215,4.1334,4.1334,4.1414,4.1414,4.1415]},{"header":{"parameterUnit":"m.s-1","parameterCategory":1,"la1":30.2991,"la2":30.254,"lo1":-89.0895,"lo2":-89.0444,"dx":0.0017,"dy":0.0017,"nx":28,"ny":28,"refTime":"2022-12-24T09:00:00:Z","depth":0,"parameterNumber":3,"parameterNumberName":"V-component_of_WINDS"},"data":[0,0,0,0,0,0,0,0,0,0,0,0,0,0,0,0,0,0,0,0,0,0,0,0,0,0,0,0,0,0,0,0,0,0,0,0,0,0,0,0,0,0,0,0,0,0,0,0,0,0,0,0,0,0,0,0,0,0,-7.343,-7.3432,0,-7.3613,-7.3615,-7.3617,-7.3571,-7.3567,-7.3564,-7.356,-7.3745,-7.3753,-7.3761,0,0,0,0,0,0,0,0,0,0,0,0,0,-7.3039,-7.3047,-7.343,-7.3432,-7.3434,-7.3612,-7.3615,-7.3617,-7.3572,-7.3567,-7.3563,-7.3559,-7.3742,-7.3752,-7.3762,0,0,0,0,0,0,0,0,0,0,0,0,0,-7.3214,-7.3049,-7.3429,-7.3433,-7.3435,-7.3612,-7.3615,-7.3618,-7.3572,-7.3567,-7.3562,-7.3557,-7.3739,-7.3751,-7.3763,-7.3947,0,0,-7.3801,-7.3806,0,0,0,0,0,0,0,0,-7.3204,-7.3228,-7.343,-7.3433,-7.3436,-7.3564,-7.3545,-7.3728,-7.3574,-7.352,-7.356,-7.3554,-7.3689,-7.3705,-7.3751,-7.3955,-7.3963,-7.3802,-7.381,-7.3815,-7.3818,0,0,0,0,0,0,0,-7.3192,-7.322,-7.3502,-7.3433,-7.3437,-7.3425,-7.3444,-7.3579,-7.3632,-7.3525,-7.3522,-7.3544,-7.3689,-7.3739,-7.3755,-7.3966,-7.3802,-7.3813,-7.382,-7.3825,-7.433,-7.4336,0,0,0,0,0,0,-7.3178,-7.3211,-7.3496,-7.3507,-7.3305,-7.3436,-7.3457,-7.3528,-7.3631,-7.3641,-7.3548,-7.3541,-7.3721,-7.374,-7.3761,-7.3983,-7.3815,-7.3826,-7.3833,-7.4324,-7.4332,-7.4338,0,0,0,0,0,0,-7.317,-7.3204,-7.3489,-7.3358,-7.3394,-7.3449,-7.3528,-7.3534,-7.3584,-7.3649,-7.3658,-7.359,-7.3717,-7.3744,-7.3901,-7.3989,-7.3832,-7.3843,-7.4317,-7.4326,-7.4335,-7.4428,0,0,0,0,0,0,-7.3159,-7.3201,-7.3272,-7.336,-7.3401,-7.3627,-7.3534,-7.3542,-7.3606,-7.3598,-7.369,-7.37,-7.3715,-7.3883,-7.3913,-7.4003,-7.3853,-7.431,-7.4321,-7.4332,-7.4417,-7.4439,-7.4458,0,0,0,0,0,-7.3145,-7.329,-7.3276,-7.3311,-7.3491,-7.3632,-7.3655,-7.367,-7.3613,-7.3684,-7.3726,-7.3697,-7.3974,-7.3899,-7.3933,-7.4028,-7.4304,-7.4318,-7.4331,-7.4408,-7.4435,-7.4457,0,0,0,0,0,0,-7.321,-7.3302,-7.3287,-7.3465,-7.3541,-7.3624,-7.3714,-7.3698,-7.3791,-7.378,-7.3793,-7.3815,-7.3975,-7.4017,-7.3932,-7.4211,-7.4131,-7.4152,-7.4178,-7.4204,-7.4223,-7.421,-7.3863,0,0,0,0,0,-7.3245,-7.3353,-7.3427,-7.3577,-7.3616,-7.3659,-7.3721,-7.3726,-7.3805,-7.3837,-7.389,-7.3967,-7.4071,-7.414,-7.4239,-7.4423,-7.4442,-7.4505,-7.4525,-7.4541,-7.4559,-7.466,-7.4688,-7.4382,-7.4382,-7.4382,0,0,-7.3319,-7.3382,-7.3449,-7.3592,-7.3652,-7.3762,-7.3686,-7.3807,-7.3889,-7.3855,-7.4007,-7.4049,-7.4135,-7.4307,-7.4385,-7.4347,-7.4648,-7.4558,-7.4571,-7.458,-7.4677,-7.4706,-7.4731,-7.4392,-7.439,-7.4388,0,0,-7.351,-7.3569,-7.3701,-7.3762,-7.3853,-7.3881,-7.3913,-7.3998,-7.4025,-7.4178,-7.4155,-7.4253,-7.4432,-7.4495,-7.4551,-7.4766,-7.4743,-7.4798,-7.4903,-7.5001,-7.5026,-7.5047,-7.5124,-7.5152,-7.4816,-7.4816,-7.4816,0,-7.359,-7.3756,-7.377,-7.3893,-7.3957,-7.3932,-7.4065,-7.4124,-7.4243,-7.4287,-7.4242,-7.4468,-7.4524,-7.4711,-7.4763,-7.4809,-7.4845,-7.4788,-7.5021,-7.5043,-7.5063,-7.5137,-7.5166,-7.4822,-7.4821,-7.4821,-7.482,0,-7.385,-7.3966,-7.4061,-7.4178,-7.4252,-7.438,-7.4413,-7.4486,-7.4485,-7.4517,-7.4673,-7.474,-7.4853,-7.4898,-7.4897,-7.5084,-7.5058,-7.5017,-7.4937,-7.5098,-7.5167,-7.5196,-7.4831,-7.4829,-7.4827,-7.4825,0,0,-7.4087,-7.421,-7.4245,-7.4298,-7.4397,-7.4487,-7.4613,-7.4724,-7.4787,-7.487,-7.4976,-7.5129,-7.5092,-7.5155,-7.5162,-7.5248,-7.5415,-7.5197,-7.5199,-7.5235,-7.5625,-7.5655,-7.5688,-7.54,-7.5405,-7.541,-7.5618,0,-7.4287,-7.451,-7.4527,-7.4728,-7.4835,-7.4814,-7.4924,-7.4996,-7.5029,-7.5125,-7.5161,-7.5269,-7.5213,-7.5251,-7.5335,-7.5377,-7.5493,-7.5362,-7.5498,-7.5503,-7.5478,-7.5724,-7.5756,-7.5949,-7.5645,-7.565,-7.5653,0,-7.455,-7.4642,-7.4854,-7.4939,-7.4984,-7.5083,-7.5187,-7.5279,-7.536,-7.5378,-7.5449,-7.5444,-7.5573,-7.5488,-7.5666,-7.5577,-7.5633,-7.5662,-7.567,-7.5684,-7.5588,-7.5744,-7.6011,-7.604,-7.5696,-7.5692,-7.5689,0,-7.4702,-7.4879,-7.5029,-7.5074,-7.5177,-7.5247,-7.5292,-7.5369,-7.5435,-7.5525,-7.5568,-7.5672,-7.5729,-7.581,-7.5832,-7.5768,-7.601,-7.5927,-7.6028,-7.6028,-7.608,-7.6077,-7.6361,-7.6117,-7.6116,-7.6116,-7.6115,0,-7.4923,-7.5054,-7.5098,-7.5191,-7.5337,-7.5354,-7.5498,-7.5539,-7.5607,-7.5707,-7.5694,-7.5788,-7.5812,-7.591,-7.5928,-7.6073,-7.6099,-7.6117,-7.612,-7.6118,-7.6116,-7.6156,-7.6143,-7.6123,-7.6122,-7.612,-7.6119,0,-7.5118,-7.5153,-7.5315,-7.5399,-7.5423,-7.5527,-7.5598,-7.5687,-7.5718,-7.5845,-7.5875,-7.5925,-7.6039,-7.607,-7.6207,-7.6219,-7.639,-7.6381,-7.6363,-7.6363,-7.6463,-7.6453,-7.6782,-7.6827,-7.6553,-7.6556,-7.6558,0,-7.5257,-7.5358,-7.5453,-7.5519,-7.5568,-7.5675,-7.5742,-7.5763,-7.5834,-7.5935,-7.6012,-7.6125,-7.6217,-7.6401,-7.6449,-7.6553,-7.6546,-7.6655,-7.6562,-7.6557,-7.6548,-7.6542,-7.6553,-7.6672,-7.6675,-7.6677,-7.6679,0,-7.5501,-7.5514,-7.5612,-7.5717,-7.5799,-7.5882,-7.5962,-7.6017,-7.6049,-7.6129,-7.6247,-7.6318,-7.6459,-7.6572,-7.6678,-7.6723,-7.6708,-7.6708,-7.6737,-7.6736,-7.6722,-7.6732,-7.6411,-7.67,-7.6698,-7.6697,-7.6696,-7.6695,-7.5673,-7.5761,-7.5842,-7.5952,-7.6015,-7.609,-7.6178,-7.6221,-7.6319,-7.6436,-7.6442,-7.657,-7.6649,-7.679,-7.6842,-7.6942,-7.6909,-7.6951,-7.6962,-7.6972,-7.6981,-7.6706,-7.6961,-7.696,-7.696,-7.6959,-7.6959,0,-7.5916,-7.5967,-7.6069,-7.6181,-7.6268,-7.6246,-7.6333,-7.6407,-7.652,-7.6596,-7.6687,-7.6822,-7.6932,-7.6988,-7.7097,-7.7166,-7.7161,-7.7193,-7.7189,-7.72,-7.7004,-7.6968,-7.7196,-7.7195,-7.7195,-7.7195,-7.7195,-7.7195,-7.6053,-7.6202,-7.6224,-7.6403,-7.6453,-7.6579,-7.6631,-7.67,-7.676,-7.6913,-7.7004,-7.704,-7.7108,-7.7221,-7.7321,-7.7334,-7.7375,-7.7412,-7.7422,-7.7237,-7.7213,-7.719,-7.7157,-7.742,-7.7421,-7.7609,-7.7611,-7.7612]}]]